Location: Mercogliano
(40.9167°N, 14.7333°E)
Time: 04:05:49
(UTC+00:00)

Cosmos 1536 Rocket - Pass Details

Date: 18 September 2020
Orbit: 606 x 632 km, 82.5° (Epoch: 25 October)

Event Time Altitude Azimuth Distance (km) Brightness Sun altitude
Rises 18:33:40 0° 358° (N) 2,914 7.3 -17.4°
Reaches altitude 10° 18:35:58 10° 4° (N) 2,006 6.3 -17.8°
Maximum altitude 18:40:17 49° 79° (E) 818 3.8 -18.6°
Enters shadow 18:41:15 41° 118° (ESE) 916 3.9 -18.7°
